Location: Newsoms
(36.6240°N, 77.1250°W)
Time: 03:02:46
(UTC-05:00)

Daily predictions for brighter satellites

Satellite Brightness Start Highest point End
(mag) Time Altitude Azimuth Time Altitude Azimuth Time Altitude Azimuth
CZ-3 R/B 4.4 01:33:10 10° W 02:48:32 55° SSE 02:57:54 10° SE
Cosmos 2333 Rocket 3.7 04:39:22 27° SSE 04:39:22 27° SSE 04:41:49 10° SSE
Cosmos 1725 Rocket 3.9 04:40:00 10° S 04:46:14 84° E 04:52:33 10° N
Cosmos 1864 Rocket 4.4 04:40:08 10° S 04:46:14 83° E 04:52:25 10° N
Cosmos 2219 Rocket 4.3 04:56:21 14° S 04:56:21 14° S 04:57:08 10° S
USA 229 DEB 4.1 04:50:54 38° NNW 04:53:47 65° NE 05:00:58 10° SE
USA 229 4.1 04:50:57 37° NNW 04:53:53 64° NE 05:01:03 10° SE
NOAA 6 4.5 04:50:30 10° NNE 04:55:39 61° E 05:00:46 10° S
OAO 2 Rocket 3.2 05:09:34 75° S 05:09:34 75° S 05:14:25 10° E
ISS -1.2 05:16:07 24° NE 05:16:07 24° NE 05:18:19 10° E
Cosmos 540 Rocket 3.4 05:17:12 63° WSW 05:17:12 63° WSW 05:21:59 10° S
Cosmos 783 Rocket 4.4 05:16:32 50° NNW 05:17:56 85° WSW 05:23:10 10° SSE
Cosmos 2237 Rocket 2.8 05:22:48 37° SW 05:22:48 37° SW 05:27:00 10° S
DELTA 2 R/B (1) 4.4 05:21:25 24° SSW 05:24:22 46° SSE 05:29:39 10° E
Aureole 2 Rocket 2.8 05:26:05 71° SW 05:26:05 71° SW 05:30:01 10° S
SL-16 R/B 2.1 05:22:49 28° NNW 05:25:57 88° ENE 05:31:37 10° SSE
Cosmos 1743 Rocket 3.4 05:27:58 64° NW 05:28:24 69° W 05:32:44 10° S
Cosmos 2297 Rocket 3.3 05:33:23 27° NNW 05:33:23 27° NNW 05:36:44 10° N
Cosmos 2233 Rocket 3.9 05:29:23 10° SSW 05:35:33 64° W 05:41:48 10° N
Cosmos 1842 Rocket 3.4 05:31:24 10° SSW 05:35:40 62° W 05:39:59 10° N
COSMO-SKYMED 1 2.4 05:32:38 10° S 05:36:58 76° WSW 05:39:28 25° NNW
ATLAS 2A CENTAUR R/B 4.2 05:36:03 18° SW 05:37:18 20° SSW 05:39:32 10° SE
USA 234 4.5 05:32:02 10° E 05:37:46 34° NNE 05:43:00 12° NNW
PSLV R/B 3.1 05:38:55 81° SW 05:39:04 86° SSE 05:42:27 10° ENE
Cosmos 2151 3.0 05:40:02 10° N 05:44:15 77° E 05:48:29 10° S
Cosmos 2227 Rocket 3.9 05:46:53 15° NNW 05:46:53 15° NNW 05:48:33 10° N
Meteor 1-4 Rocket 4.5 05:48:27 18° NNW 05:48:27 18° NNW 05:49:33 10° N
ERBS 4.1 05:44:40 19° N 05:46:14 28° NE 05:49:13 10° ESE
Cosmos 1538 Rocket 4.1 05:41:47 10° NNW 05:47:11 79° ENE 05:52:32 10° SSE
Meteor 1-16 Rocket 4.0 05:42:32 10° SSW 05:47:59 75° W 05:53:20 10° N
NOSS 3-1 (C) 4.4 05:41:10 10° NNW 05:48:43 66° NE 05:57:03 10° SE
Cosmos 1340 Rocket 3.4 05:45:33 10° N 05:49:26 58° E 05:53:20 10° SSE
Cosmos 1271 Rocket 2.5 05:46:02 10° S 05:49:53 85° W 05:53:41 10° N
Meteor 1-28 Rocket 3.0 05:48:45 10° S 05:52:31 79° WSW 05:55:51 13° NNW
BREEZE-M DEB (TANK) 4.3 05:52:34 26° WSW 05:53:04 26° WSW 05:55:48 10° S
Cosmos 1500 Rocket 3.8 05:52:33 19° NNW 05:55:30 47° W 05:59:45 10° SSW
Ariane Rocket 2.9 05:53:23 10° N 05:58:27 71° WNW 06:03:31 10° SSW
SL-14 R/B 3.2 05:55:50 10° NNW 05:59:52 65° W 06:03:52 10° S
Cosmos 1626 3.4 06:04:58 10° N 06:08:32 42° E 06:12:04 10° SSE
Meteor 2-1 Rocket 4.1 06:06:25 10° SSW 06:11:59 73° W 06:17:42 10° N
Sich 1 4.3 06:08:55 10° N 06:13:04 42° E 06:17:09 10° SSE
SMAP 3.9 06:09:04 10° NNE 06:13:38 53° E 06:18:10 10° S
CZ-2C R/B 2.6 06:12:18 10° NNE 06:16:52 68° ESE 06:21:24 10° S
Cosmos 389 Rocket 4.0 06:14:43 10° SSE 06:18:11 41° E 06:21:40 10° NNE
CZ-4 R/B 1.4 06:17:59 10° NNE 06:22:03 88° ESE 06:26:11 10° SSW
Tiangong 2 2.4 06:20:59 10° SW 06:23:55 39° SSE 06:26:53 10° ENE
PAYLOAD A 3.9 06:19:57 10° N 06:24:56 64° WNW 06:29:42 10° SSW
CSL-04 Debris 4.2 06:19:38 10° N 06:25:01 59° WNW 06:30:21 10° SSW
Cosmos 1464 Rocket 4.1 06:19:47 10° SSW 06:25:59 57° W 06:32:12 10° N
Cosmos 1603 3.7 06:24:16 10° NNW 06:29:54 76° WSW 06:35:31 10° SSE
Cosmos 2263 Rocket 3.0 06:27:32 10° S 06:33:05 58° ESE 06:38:40 10° NNE
YAOGAN 1 2.7 06:29:25 10° NNE 06:33:45 79° ESE 06:38:04 10° S
GPS 2-05 Rocket1 2.8 06:31:03 12° W 06:34:03 75° S 06:37:24 10° E
Cosmos 1908 3.3 06:32:46 10° S 06:36:35 81° E 06:40:25 10° N
Cosmos 2112 Rocket 4.5 06:32:53 10° NNW 06:38:13 66° ENE 06:43:31 10° SSE
Cosmos 773 Rocket 4.3 06:35:03 10° NNW 06:40:08 50° WSW 06:45:13 10° S
Coronas F rocket 1.5 06:38:46 10° N 06:41:08 60° E 06:43:30 10° SSE
Cosmos 1666 Rocket 3.6 06:41:57 10° NNW 06:46:23 70° W 06:50:49 10° S
MSX 4.0 06:40:39 10° NNE 06:46:26 81° ESE 06:52:13 10° S
Cosmos 2221 3.5 06:44:39 10° SW 06:48:14 25° WNW 06:51:49 10° NNW
CZ-4 R/B 4.4 06:47:00 10° N 06:51:08 82° WNW 06:55:14 10° SSW
ISS -2.2 06:49:09 10° WNW 06:52:02 30° SW 06:54:55 10° SSE
OAO 2 Rocket 3.8 06:49:22 10° W 06:54:07 51° SSW 06:58:54 10° ESE
APEX 3.4 06:51:51 10° SSW 06:56:08 76° ESE 06:59:30 10° NNE
NOSS 3-1 (A) 4.3 06:50:52 10° NW 06:58:35 65° WSW 07:06:56 10° SSE
